Location: Assche-ter-Heiden
(50.9174°N, 4.1574°E)
Time: 06:04:37
(UTC+00:00)

Cosmos 2227 Rocket - Pass Details

Date: 20 January 2020
Orbit: 840 x 843 km, 71.0° (Epoch: 24 February)

Event Time Altitude Azimuth Distance (km) Brightness Sun altitude
Exits shadow 04:07:35 17° 161° (SSE) 2,029 4.2 -32.3°
Drops below altitude 10° 04:08:44 10° 160° (SSE) 2,453 4.7 -32.1°
Sets 04:11:10 0° 158° (SSE) 3,384 5.5 -31.7°
